Overview Statistics Trail Chart Weather Telemetry Raw packets
 

This is the latest recevied weather packets stored in our database for station/object KO6LQK. If no packets are shown the sender has not sent any weather packets the latest 10 day(s).

<< 21 22 23 24 25 26 27 >>
Time Temp. Humidity Pressure Rain* Wind** Luminosity Snow
1788290147 29.44° C 12% 1022.6 hPa 0 mm - 902 W/m² -
1788289843 29.44° C 13% 1022.4 hPa 0 mm - 895 W/m² -
1788289539 28.89° C 13% 1022.6 hPa 0 mm - 890 W/m² -
1788289238 29.44° C 12% 1022.7 hPa 0 mm - 883 W/m² -
1788288936 29.44° C 12% 1022.7 hPa 0 mm - 877 W/m² -
1788288636 29.44° C 12% 1022.6 hPa 0 mm - 869 W/m² -
1788288331 29.44° C 13% 1022.7 hPa 0 mm - 864 W/m² -
1788288027 28.89° C 13% 1022.4 hPa 0 mm - 854 W/m² -
1788287721 28.89° C 13% 1022.7 hPa 0 mm - 847 W/m² -
1788287416 28.89° C 13% 1022.4 hPa 0 mm - 834 W/m² -
1788287113 28.89° C 12% 1022.8 hPa 0 mm - 819 W/m² -
1788286813 28.33° C 13% 1022.8 hPa 0 mm - 810 W/m² -
1788286512 28.89° C 13% 1022.8 hPa 0 mm - 793 W/m² -
1788286212 28.33° C 12% 1022.6 hPa 0 mm - 782 W/m² -
1788285910 28.33° C 12% 1022.6 hPa 0 mm - 763 W/m² -
1788285611 28.33° C 12% 1022.4 hPa 0 mm - 750 W/m² -
1788285305 28.33° C 12% 1022.8 hPa 0 mm - 732 W/m² -
1788284999 28.33° C 13% 1022.7 hPa 0 mm - 724 W/m² -
1788284695 27.78° C 12% 1022.6 hPa 0 mm - 709 W/m² -
1788284390 28.33° C 12% 1022.6 hPa 0 mm - 697 W/m² -
1788284086 27.78° C 13% 1022.4 hPa 0 mm - 683 W/m² -
1788283782 27.78° C 13% 1022.4 hPa 0 mm - 674 W/m² -
1788283477 27.22° C 13% 1022.4 hPa 0 mm - 659 W/m² -
1788283175 27.78° C 13% 1022.3 hPa 0 mm - 647 W/m² -
1788282873 27.22° C 14% 1022.4 hPa 0 mm - 629 W/m² -

* Rain latest hour (hover to see other rain measurements)
** Current wind speed in m/s (hover to see current wind gust speed)